Flag for Switzerland Weather past 2 weeks in Wädenswil, Zurich, Switzerland

Now
57 °F

Cool.


Feels Like: 56 °F
Forecast: 54 / 78 °F
Wind: 6 mph from Northeast

Location: Zurich Town / Ville.

Current Time: Sep 17, 2014 at 4:25:45 AM

Latest Report: Sep 17, 2014 at 3:00 AM


Visibility: N/A

Pressure: 29.93 "Hg

Humidity: 94%

Dew point: 55 °F

Location of WädenswilLocation

Historic Weather in Wädenswil — Graph

°F

Wädenswil temperature yesterday

Maximum temperature yesterday: 72 °F (at 4:00 PM)
Minimum temperature yesterday: 56 °F (at 6:00 AM)
Average temperature yesterday: 62 °F

Past Weeks' High & Low Weather Summary

 TemperatureHumidityPressure
High80 °F (Sep 8, 3:00 PM)100% (Sep 16, 7:00 AM)30.16 "Hg (Sep 16, 7:00 AM)
Low49 °F (Sep 2, 4:00 AM)47% (Sep 7, 4:00 PM)29.84 "Hg (Sep 6, 4:00 PM)
Average61 °F82%30.00 "Hg
* Reported Sep 2 3:00 AM — Sep 17 3:00 AM, Wädenswil, Weather by CustomWeather, © 2014

Note: Actual official high and low records may vary slightly from our data, if they occured in-between our weather recording intervals... More about our weather records

Advertising

Wädenswil weather history for previous 24 hours

 ConditionsComfort  
Time TempWeatherWind HumidityBarometerVisibility
3:00 AM
Sep 17
57 °FCool.6 mph94%29.93 "HgN/A
2:00 AM58 °FCool.7 mph93%29.93 "HgN/A
1:00 AM59 °FCool.7 mph91%29.92 "HgN/A
12:00 AM60 °FCool.6 mph89%29.94 "HgN/A
11:00 PM
Sep 16
60 °FCool.3 mph86%29.93 "HgN/A
10:00 PM62 °FCool.7 mph82%29.93 "HgN/A
9:00 PM63 °FMild.7 mph83%29.93 "HgN/A
8:00 PM64 °FPassing clouds.6 mph79%29.92 "HgN/A
7:00 PM69 °FMild.3 mph69%29.90 "HgN/A
6:00 PM71 °FMild.2 mph56%29.89 "HgN/A
5:00 PM71 °FMild.5 mph59%29.89 "HgN/A
4:00 PM72 °FMild.6 mph56%29.90 "HgN/A
3:00 PM70 °FMild.3 mph64%29.91 "HgN/A
2:00 PM69 °FMild.5 mph68%29.94 "HgN/A
1:00 PM67 °FMild.3 mph72%29.95 "HgN/A
12:00 PM64 °FMild.5 mph78%29.98 "HgN/A
11:00 AM62 °FCool.2 mph85%30.00 "HgN/A
10:00 AM59 °FCool.1 mph91%30.01 "HgN/A
9:00 AM57 °FCool.1 mph100%30.01 "HgN/A
8:00 AM56 °FCool.No wind100%30.01 "HgN/A
7:00 AM57 °FCool.1 mph100%30.00 "HgN/A
6:00 AM56 °FCool.1 mph96%29.99 "HgN/A
5:00 AM56 °FCool.1 mph96%29.99 "HgN/A
4:00 AM57 °FCool.2 mph95%29.99 "HgN/A
Weather by CustomWeather, © 2014

See weather overviewHow to use our weather pages